TIANPING 1A (43712 NORAD) Tracking and Keplerian Element Data

This shows tracking and keplerian element data for the satellite.

Feedback or suggestion? Click here.




ElementValue
Catalog43712
NameTIANPING 1A
Epoch Orbit30987
Epoch Day160.23352824
Epoch Year2024
RAAN185.7334
Inclination97.3495
Eccentricity0.0003543
Argument of Perigee241.7013
Mean Anonmoly118.3888
Mean Motion15.61796707
Decay Rate0.00082443
L11 43712U 18094C 24160.23352824 .00082443 00000+0 94604-3 0 9997
L22 43712 97.3495 185.7334 0003543 241.7013 118.3888 15.61796707309873



Live tracking and technical data element details for TIANPING 1A (NORAD 43712). TIANPING 1A can be tracked NOW for your location showing map with azimuth and elevation plus other details from your city location.







IsCatalogInMostPopularTable: catalog: 43712, numindb: 306
Update: records affected: 1



GetName: 43712 TIANPING 1A

Hit Count: updated at: Fri, 16 May 2025 10:46:52 GMT